Flag for Spain Weather past 2 weeks in Santa Cruz de Tenerife, Canary Islands, Spain

Now
64 °F

Passing clouds.


Feels Like: 64 °F
Forecast: 71 / 77 °F
Wind: 13 mph from West

Location: Tenerife / Los Rodeos

Current Time: Aug 22, 2014 at 11:36:13 PM

Latest Report: Aug 22, 2014 at 11:00 PM


Visibility: N/A

Pressure: 30.18 "Hg

Humidity: 100%

Dew point: 64 °F

Location of Santa Cruz de TenerifeLocation

Historic Weather in Santa Cruz de Tenerife — Graph

°F

Santa Cruz de Tenerife temperature yesterday

Maximum temperature yesterday: 88 °F (at 1:30 PM)
Minimum temperature yesterday: 73 °F (at 8:30 PM)
Average temperature yesterday: 80 °F

Past Weeks' High & Low Weather Summary

 TemperatureHumidityPressure
High88 °F (Aug 21, 1:30 PM)100% (Aug 8, 6:00 AM)30.21 "Hg (Aug 8, 6:00 AM)
Low61 °F (Aug 15, 6:00 AM)26% (Aug 22, 10:00 AM)30.01 "Hg (Aug 17, 5:30 PM)
Average69 °F81%30.11 "Hg
* Reported Aug 7 10:00 PM — Aug 22 10:30 PM, Santa Cruz de Tenerife, Weather by CustomWeather, © 2014

Note: Actual official high and low records may vary slightly from our data, if they occured in-between our weather recording intervals... More about our weather records

Advertising

Santa Cruz de Tenerife weather history for previous 24 hours

 ConditionsComfort  
Time TempWeatherWind HumidityBarometerVisibility
10:30 PM
Aug 22
64 °FPassing clouds.13 mph100%30.18 "HgN/A
10:00 PM64 °FPassing clouds.15 mph100%30.15 "HgN/A
9:30 PM66 °FLight fog.17 mph94%30.15 "HgN/A
9:00 PM66 °FLight fog.22 mph94%30.12 "HgN/A
8:30 PM68 °FPassing clouds.22 mph88%30.12 "HgN/A
8:00 PM70 °FSunny.20 mph78%30.12 "Hg10 mi
7:30 PM73 °FSunny.13 mph61%30.12 "Hg10 mi
7:00 PM75 °FSunny.17 mph54%30.12 "Hg10 mi
6:30 PM75 °FSunny.16 mph57%30.12 "Hg10 mi
6:00 PM77 °FPassing clouds.15 mph54%30.12 "HgN/A
5:30 PM79 °FPassing clouds.15 mph39%30.12 "HgN/A
5:00 PM81 °FPassing clouds.16 mph45%30.12 "HgN/A
4:30 PM81 °FSunny.16 mph45%30.15 "Hg10 mi
4:00 PM81 °FSunny.15 mph48%30.15 "Hg10 mi
3:30 PM82 °FSunny.15 mph42%30.15 "Hg10 mi
3:00 PM81 °FPassing clouds.14 mph51%30.15 "HgN/A
2:30 PM79 °FSunny.15 mph58%30.15 "Hg10 mi
2:00 PM79 °FPassing clouds.17 mph58%30.15 "HgN/A
1:30 PM81 °FPassing clouds.15 mph48%30.15 "HgN/A
1:00 PM82 °FPassing clouds.15 mph42%30.15 "HgN/A
12:30 PM84 °FPassing clouds.15 mph35%30.15 "HgN/A
12:00 PM84 °FPassing clouds.14 mph37%30.15 "HgN/A
11:30 AM82 °FPassing clouds.14 mph40%30.15 "HgN/A
11:00 AM81 °FPassing clouds.13 mph42%30.15 "HgN/A
10:30 AM79 °FPassing clouds.14 mph37%30.15 "HgN/A
10:00 AM81 °FPassing clouds.13 mph26%30.15 "HgN/A
9:30 AM77 °FPassing clouds.12 mph32%30.15 "HgN/A
9:00 AM75 °FPassing clouds.13 mph34%30.15 "HgN/A
8:30 AM73 °FClear.16 mph41%30.12 "Hg10 mi
8:00 AM73 °FClear.16 mph44%30.12 "Hg10 mi
7:30 AM72 °FClear.12 mph44%30.12 "Hg10 mi
7:00 AM72 °FClear.12 mph44%30.12 "Hg10 mi
6:30 AM72 °FClear.10 mph47%30.12 "Hg10 mi
6:00 AM70 °FClear.7 mph53%30.12 "Hg10 mi
11:00 PM
Aug 21
73 °FClear.10 mph50%30.18 "Hg6 mi
Weather by CustomWeather, © 2014

See weather overviewHow to use our weather pages